QB50P1

Last updated on Sat Dec 13 2025 00:03:09 GMT+0000 (Coordinated Universal Time)

1 40025U 14033R 25345.95911998 .00013762 00000+0 75115-3 0 9992 2 40025 98.0970 339.5047 0010468 137.2100 222.9947 15.14429277624650
UTC large
Height (km)
Speed (km/s)
/
Latitude / Longitude
Inclination (degrees)
Orbital Period (minutes)
Azimuth
Elevation
Range (km)
Doppler Factor

Next 0 passes for location: London (51.5072 / 0.1276)

Sorry there are no passes over London.